Satellite-Ground Cal/Val Region Overpasses Predictions

Prediction of Satellite NPP Overpassing Cal/Val Region: PacNW

Region Location: (Latitude: 10.00, Longitude: 139.50) to (Latitude: 22.70, Longitude: 165.60).

Table of predicted overpasses for the next 14.0 days since TLE Epoch: 5/6/2023
Interval Starting Time Starting Location Ending Time Ending Location
1 05/06/2023 14:32:00 ( 11.34, 165.59) 05/06/2023 14:32:22 ( 10.05, 165.29)
2 05/06/2023 16:10:17 ( 22.66, 142.91) 05/06/2023 16:13:52 ( 10.04, 139.91)
3 05/07/2023 03:19:21 ( 10.00, 150.46) 05/07/2023 03:22:57 ( 22.68, 147.45)
4 05/07/2023 15:51:14 ( 22.67, 147.67) 05/07/2023 15:54:49 ( 10.05, 144.68)
5 05/08/2023 03:00:18 ( 10.05, 155.21) 05/08/2023 03:03:53 ( 22.68, 152.21)
6 05/08/2023 15:32:10 ( 22.67, 152.44) 05/08/2023 15:35:45 ( 10.05, 149.44)
7 05/09/2023 02:41:15 ( 10.04, 159.97) 05/09/2023 02:44:50 ( 22.67, 156.98)
8 05/09/2023 15:13:07 ( 22.68, 157.20) 05/09/2023 15:16:43 ( 10.00, 154.19)
9 05/10/2023 02:22:12 ( 10.04, 164.74) 05/10/2023 02:25:47 ( 22.66, 161.74)
10 05/10/2023 14:54:03 ( 22.69, 161.96) 05/10/2023 14:57:39 ( 10.01, 158.95)
11 05/11/2023 03:44:38 ( 10.05, 144.12) 05/11/2023 03:48:13 ( 22.67, 141.12)
12 05/11/2023 14:36:19 ( 18.06, 165.59) 05/11/2023 14:38:36 ( 10.01, 163.71)
13 05/11/2023 16:16:30 ( 22.68, 141.35) 05/11/2023 16:18:40 ( 15.05, 139.50)
14 05/12/2023 03:25:35 ( 10.04, 148.88) 05/12/2023 03:29:10 ( 22.67, 145.89)
15 05/12/2023 15:57:26 ( 22.68, 146.11) 05/12/2023 16:01:02 ( 10.00, 143.10)
16 05/13/2023 03:06:31 ( 10.04, 153.64) 05/13/2023 03:10:06 ( 22.67, 150.65)
17 05/13/2023 15:38:23 ( 22.68, 150.87) 05/13/2023 15:41:59 ( 10.00, 147.86)
18 05/14/2023 02:47:28 ( 10.04, 158.40) 05/14/2023 02:51:03 ( 22.67, 155.41)
19 05/14/2023 15:19:19 ( 22.68, 155.63) 05/14/2023 15:22:55 ( 10.00, 152.62)
20 05/15/2023 02:28:24 ( 10.05, 163.17) 05/15/2023 02:31:59 ( 22.67, 160.17)
21 05/15/2023 15:00:16 ( 22.68, 160.39) 05/15/2023 15:03:52 ( 10.00, 157.38)
22 05/16/2023 02:12:10 ( 19.98, 165.60) 05/16/2023 02:12:56 ( 22.67, 164.93)
23 05/16/2023 03:50:50 ( 10.00, 142.56) 05/16/2023 03:54:26 ( 22.69, 139.55)
24 05/16/2023 14:41:12 ( 22.68, 165.15) 05/16/2023 14:44:47 ( 10.06, 162.16)
25 05/16/2023 16:22:42 ( 22.66, 139.78) 05/16/2023 16:23:00 ( 21.61, 139.51)
26 05/17/2023 03:31:46 ( 10.01, 147.32) 05/17/2023 03:35:22 ( 22.69, 144.31)
27 05/17/2023 16:03:39 ( 22.66, 144.54) 05/17/2023 16:07:14 ( 10.04, 141.54)
28 05/18/2023 03:12:43 ( 10.01, 152.08) 05/18/2023 03:16:19 ( 22.70, 149.07)
29 05/18/2023 15:44:36 ( 22.65, 149.30) 05/18/2023 15:48:11 ( 10.03, 146.30)
30 05/19/2023 02:53:39 ( 10.02, 156.84) 05/19/2023 02:57:14 ( 22.65, 153.85)
31 05/19/2023 15:25:32 ( 22.65, 154.06) 05/19/2023 15:29:07 ( 10.03, 151.06)
